Buckland, AK

1:46 PM AKDT on August 17, 2017 (GMT -0800)
Buckland

Weather History for PABL - October, 2012

Change the Weather History Date:

Friday, October 19, 2012

  Actual Average (PASK) Record (PASK)
Temperature  
Mean Temperature 26 °F -  
Max Temperature 28 °F 21 °F 42 °F (2013)
Min Temperature 23 °F 13 °F -4 °F (2001)
Degree Days  
Heating Degree Days 40    
Moisture  
Dew Point 18 °F    
Average Humidity 75    
Maximum Humidity 86    
Minimum Humidity 64    
Precipitation  
Precipitation 0.00 in - - ()
Sea Level Pressure  
Sea Level Pressure 30.35 in    
Wind  
Wind Speed 8 mph (SSW)    
Max Wind Speed 12 mph    
Max Gust Speed -    
Visibility 10 miles    
Events      
Averages and records for this station are not official NWS values.
T = Trace of Precipitation, MM = Missing Value Source: NWS Daily Summary

Daily Weather History Graph

Daily Weather History Graph

Search for Another Location

Airport or City:

Trip Planner

Search our weather history database for the weather conditions in past years. The results will help you decide how hot, cold, wet, or windy it might be!

Date:

Astronomy

Oct. 19, 2012 Rise Set
Actual Time 9:56 AM AKDT 7:00 PM AKDT
Civil Twilight 9:03 AM AKDT 7:54 PM AKDT
Nautical Twilight 8:03 AM AKDT 8:53 PM AKDT
Astronomical Twilight 7:03 AM AKDT 9:52 PM AKDT
Moon 4:39 PM AKDT (10/19) 9:07 PM AKDT (10/19)
Length of Visible Light 10h 50m
Length of Day
9h 03m
Waxing Crescent, 25% of the Moon is Illuminated
Oct 19
Waxing Crescent
Oct 21
First Quarter
Oct 29
Full
Nov 6
Last Quarter
Nov 13
New

Hourly Weather History & Observations

Time (AKDT) Temp. Windchill Dew Point Humidity Pressure Visibility Wind Dir Wind Speed Gust Speed Precip Events Conditions
12:16 AM 28.4 °F 19.7 °F 21.2 °F 74% 30.27 in 10.0 mi West 9.2 mph - N/A   Overcast
12:36 AM 28.4 °F 19.7 °F 21.2 °F 74% 30.27 in 10.0 mi West 9.2 mph - N/A   Overcast
12:56 AM 26.6 °F 16.8 °F 21.2 °F 80% 30.27 in 10.0 mi West 10.4 mph - N/A   Overcast
1:16 AM 26.6 °F 16.2 °F 21.2 °F 80% 30.27 in 10.0 mi West 11.5 mph - N/A   Overcast
1:36 AM 26.6 °F 18.2 °F 21.2 °F 80% 30.28 in 10.0 mi WSW 8.1 mph - N/A   Overcast
1:56 AM 26.6 °F 17.5 °F 21.2 °F 80% 30.28 in 10.0 mi West 9.2 mph - N/A   Overcast
2:16 AM 26.6 °F 16.8 °F 19.4 °F 74% 30.29 in 10.0 mi West 10.4 mph - N/A   Overcast
2:36 AM 26.6 °F 19.1 °F 19.4 °F 74% 30.29 in 10.0 mi West 6.9 mph - N/A   Overcast
2:56 AM 26.6 °F 18.2 °F 19.4 °F 74% 30.30 in 10.0 mi WSW 8.1 mph - N/A   Overcast
3:16 AM 26.6 °F 16.8 °F 19.4 °F 74% 30.30 in 10.0 mi WSW 10.4 mph - N/A   Overcast
3:36 AM 26.6 °F 16.8 °F 19.4 °F 74% 30.30 in 10.0 mi WSW 10.4 mph - N/A   Overcast
3:56 AM 24.8 °F 14.0 °F 17.6 °F 74% 30.30 in 10.0 mi WSW 11.5 mph - N/A   Overcast
4:16 AM 24.8 °F 14.6 °F 17.6 °F 74% 30.30 in 10.0 mi WSW 10.4 mph - N/A   Overcast
4:36 AM 24.8 °F 14.6 °F 17.6 °F 74% 30.31 in 10.0 mi WSW 10.4 mph - N/A   Overcast
4:56 AM 24.8 °F 14.6 °F 17.6 °F 74% 30.31 in 10.0 mi WSW 10.4 mph - N/A   Overcast
5:16 AM 24.8 °F 15.3 °F 17.6 °F 74% 30.31 in 10.0 mi WSW 9.2 mph - N/A   Overcast
5:36 AM 24.8 °F 16.1 °F 15.8 °F 69% 30.32 in 10.0 mi WSW 8.1 mph - N/A   Overcast
5:56 AM 24.8 °F 15.3 °F 17.6 °F 74% 30.32 in 10.0 mi WSW 9.2 mph - N/A   Overcast
6:16 AM 24.8 °F 15.3 °F 17.6 °F 74% 30.32 in 10.0 mi WSW 9.2 mph - N/A   Overcast
6:36 AM 24.8 °F 16.1 °F 17.6 °F 74% 30.32 in 10.0 mi West 8.1 mph - N/A   Overcast
6:56 AM 24.8 °F 14.6 °F 17.6 °F 74% 30.32 in 10.0 mi WSW 10.4 mph - N/A   Overcast
7:16 AM 24.8 °F 16.9 °F 15.8 °F 69% 30.32 in 10.0 mi WSW 6.9 mph - N/A   Overcast
7:36 AM 23.0 °F 14.7 °F 17.6 °F 80% 30.33 in 10.0 mi WSW 6.9 mph - N/A   Overcast
7:56 AM 23.0 °F 13.1 °F 15.8 °F 74% 30.33 in 10.0 mi SW 9.2 mph - N/A   Overcast
8:16 AM 23.0 °F 12.4 °F 15.8 °F 74% 30.33 in 10.0 mi SW 10.4 mph - N/A   Overcast
8:36 AM 23.0 °F 13.1 °F 15.8 °F 74% 30.33 in 10.0 mi WSW 9.2 mph - N/A   Overcast
8:56 AM 23.0 °F 12.4 °F 15.8 °F 74% 30.34 in 10.0 mi SW 10.4 mph - N/A   Overcast
9:16 AM 23.0 °F 13.1 °F 15.8 °F 74% 30.35 in 10.0 mi SW 9.2 mph - N/A   Overcast
9:36 AM 23.0 °F 14.7 °F 15.8 °F 74% 30.35 in 10.0 mi SW 6.9 mph - N/A   Overcast
9:56 AM 23.0 °F 13.9 °F 15.8 °F 74% 30.35 in 10.0 mi SW 8.1 mph - N/A   Overcast
10:16 AM 23.0 °F 15.8 °F 15.8 °F 74% 30.35 in 10.0 mi SW 5.8 mph - N/A   Overcast
10:36 AM 23.0 °F 14.7 °F 15.8 °F 74% 30.35 in 10.0 mi SW 6.9 mph - N/A   Overcast
10:56 AM 23.0 °F 15.8 °F 15.8 °F 74% 30.35 in 10.0 mi SW 5.8 mph - N/A   Overcast
11:16 AM 23.0 °F 15.8 °F 15.8 °F 74% 30.36 in 9.0 mi SSW 5.8 mph - N/A   Overcast
11:36 AM 24.8 °F 16.1 °F 15.8 °F 69% 30.36 in 10.0 mi South 8.1 mph - N/A   Overcast
11:56 AM 24.8 °F 16.1 °F 15.8 °F 69% 30.36 in 10.0 mi South 8.1 mph - N/A   Overcast
12:16 PM 23.0 °F 15.8 °F 15.8 °F 74% 30.37 in 10.0 mi South 5.8 mph - N/A   Overcast
12:36 PM 24.8 °F 16.9 °F 15.8 °F 69% 30.37 in 10.0 mi South 6.9 mph - N/A   Overcast
12:56 PM 24.8 °F 16.1 °F 15.8 °F 69% 30.37 in 10.0 mi South 8.1 mph - N/A   Overcast
1:16 PM 24.8 °F 16.9 °F 15.8 °F 69% 30.37 in 10.0 mi SSE 6.9 mph - N/A   Partly Cloudy
1:36 PM 24.8 °F 17.9 °F 15.8 °F 69% 30.37 in 10.0 mi SSE 5.8 mph - N/A   Mostly Cloudy
1:56 PM 26.6 °F 21.2 °F 15.8 °F 64% 30.37 in 10.0 mi SSE 4.6 mph - N/A   Overcast
2:16 PM 26.6 °F 20.0 °F 15.8 °F 64% 30.37 in 10.0 mi South 5.8 mph - N/A   Overcast
2:36 PM 26.6 °F 20.0 °F 15.8 °F 64% 30.37 in 10.0 mi SSE 5.8 mph - N/A   Overcast
2:56 PM 26.6 °F 21.2 °F 15.8 °F 64% 30.37 in 10.0 mi South 4.6 mph - N/A   Overcast
3:16 PM 26.6 °F 22.6 °F 15.8 °F 64% 30.38 in 10.0 mi SE 3.5 mph - N/A   Overcast
3:36 PM 26.6 °F 22.6 °F 15.8 °F 64% 30.38 in 10.0 mi South 3.5 mph - N/A   Overcast
3:56 PM 26.6 °F 22.6 °F 17.6 °F 69% 30.38 in 10.0 mi SSE 3.5 mph - N/A   Mostly Cloudy
4:16 PM 26.6 °F 22.6 °F 17.6 °F 69% 30.38 in 9.0 mi ESE 3.5 mph - N/A   Mostly Cloudy
4:36 PM 26.6 °F - 17.6 °F 69% 30.38 in 10.0 mi Calm Calm - N/A   Overcast
4:56 PM 28.4 °F 22.2 °F 17.6 °F 64% 30.38 in 10.0 mi East 5.8 mph - N/A   Overcast
5:16 PM 26.6 °F 20.0 °F 19.4 °F 74% 30.38 in 10.0 mi ESE 5.8 mph - N/A   Overcast
5:36 PM 26.6 °F 20.0 °F 19.4 °F 74% 30.38 in 10.0 mi SE 5.8 mph - N/A   Overcast
5:56 PM 26.6 °F 19.1 °F 19.4 °F 74% 30.38 in 10.0 mi SE 6.9 mph - N/A   Overcast
6:16 PM 26.6 °F 20.0 °F 19.4 °F 74% 30.39 in 9.0 mi SE 5.8 mph - N/A   Overcast
6:36 PM 26.6 °F 21.2 °F 19.4 °F 74% 30.38 in 10.0 mi SE 4.6 mph - N/A   Overcast
6:56 PM 26.6 °F 20.0 °F 19.4 °F 74% 30.39 in 9.0 mi SE 5.8 mph - N/A   Overcast
7:16 PM 26.6 °F 21.2 °F 19.4 °F 74% 30.39 in 10.0 mi SE 4.6 mph - N/A   Overcast
7:36 PM 26.6 °F 21.2 °F 19.4 °F 74% 30.39 in 10.0 mi SE 4.6 mph - N/A   Overcast
7:56 PM 24.8 °F 19.1 °F 19.4 °F 80% 30.40 in 9.0 mi SE 4.6 mph - N/A   Overcast
8:16 PM 24.8 °F 19.1 °F 19.4 °F 80% 30.39 in 10.0 mi SE 4.6 mph - N/A   Overcast
8:36 PM 24.8 °F 20.5 °F 19.4 °F 80% 30.40 in 9.0 mi SE 3.5 mph - N/A   Overcast
8:56 PM 24.8 °F - 21.2 °F 86% 30.40 in 10.0 mi Calm Calm - N/A   Overcast
9:16 PM 24.8 °F - 21.2 °F 86% 30.41 in 10.0 mi Calm Calm - N/A   Overcast
9:36 PM 24.8 °F - 21.2 °F 86% 30.41 in 9.0 mi Calm Calm - N/A   Overcast
9:56 PM 24.8 °F - 21.2 °F 86% 30.41 in 10.0 mi Calm Calm - N/A   Overcast
10:16 PM 24.8 °F - 21.2 °F 86% 30.41 in 10.0 mi Calm Calm - N/A   Overcast
10:36 PM 24.8 °F 19.1 °F 21.2 °F 86% 30.42 in 10.0 mi East 4.6 mph - N/A   Overcast
10:56 PM 24.8 °F 19.1 °F 21.2 °F 86% 30.42 in 10.0 mi ESE 4.6 mph - N/A   Overcast
11:16 PM 24.8 °F 19.1 °F 21.2 °F 86% 30.42 in 10.0 mi ESE 4.6 mph - N/A   Overcast
11:36 PM 24.8 °F 19.1 °F 21.2 °F 86% 30.43 in 10.0 mi ESE 4.6 mph - N/A   Overcast
11:56 PM 24.8 °F 19.1 °F 21.2 °F 86% 30.43 in 10.0 mi ESE 4.6 mph - N/A   Overcast